Location: Observatory
(52.1446°N, 0.4624°W)
Time: 04:28:45
(UTC+00:00)

ISS - Pass Details

Date: 21 January 2021
Orbit: 418 x 421 km, 51.6° (Epoch: 23 January)

Event Time Altitude Azimuth Distance (km) Brightness Sun altitude
Rises 18:27:19 0° 222° (SW) 2,362 0.9 -17.6°
Reaches altitude 10° 18:29:35 10° 210° (SSW) 1,501 -0.4 -17.9°
Enters shadow 18:32:25 28° 153° (SSE) 830 -2.5 -18.3°
